Regional Weather Roundup
Issued by NWS Grand Forks, ND

Home | Current Version | Previous Version | Graphics & Text | Print | Product List | Glossary On
Versions: 1 2 3 4 5 6 7 8 9 10 11 12 13 14 15 16 17 18 19 20 21 22 23 24 25 26 27 28 29 30 31 32 33 34 35 36 37 38 39 40 41 42 43 44 45 46 47 48 49 50
000
ASUS43 KFGF 031531
RWRFGF
PRAIRIE TO PINES  WEATHER ROUNDUP
NATIONAL WEATHER SERVICE EASTERN NORTH DAKOTA/GRAND FORKS ND
1000 AM CDT MON AUG 03 2015

 **SATELLITE DATA USED TO AUGMENT SKY COVER AT AUTOMATED STATIONS**
 *****  WEATHER ACROSS EASTERN NORTH DAKOTA  *****

CITY           SKY/WX    TMP DP  RH WIND       PRES   REMARKS
GRAND FORKS    SUNNY     68  52  56 NW12      29.93S
GRAND FRKS AFB SUNNY     67  51  55 N8        29.94S
GRAND FRKS NWS   N/A     64 N/A N/A NW9         N/A
DEVILS LAKE    SUNNY     66  46  48 NW12      29.98S
FARGO          SUNNY     68  54  60 N8        29.94S
WAHPETON ARPT  SUNNY     68  50  52 NW10      29.96S
$$

 ***** WEATHER ACROSS CENTRAL AND WESTERN NORTH DAKOTA  *****

CITY           SKY/WX    TMP DP  RH WIND       PRES   REMARKS
BISMARCK       SUNNY     67  53  61 CALM      30.04S
MINOT          SUNNY     67  51  56 VRB3      30.02S
JAMESTOWN      SUNNY     68  53  58 N9        29.99S
MINOT AFB      NOT AVBL
GARRISON         N/A     69  53  56 VRB3      30.04R
WILLISTON      SUNNY     67  50  54 CALM      30.05F
DICKINSON      SUNNY     67  52  58 E5        30.05S
HETTINGER      SUNNY     70  51  51 E6        30.07S
$$

 *****  OTHER AIRPORT OBSERVATIONS IN OUR AREA  *****

CITY           SKY/WX    TMP DP  RH WIND       PRES   REMARKS
WALHALLA       FAIR      66  55  68 MISG      29.96R
GRAFTON AIRPOR FAIR      68  52  56 N15G22    29.95R
VALLEY CITY AR FAIR      68  55  64 NW10      29.98S
CANDO          FAIR      68  52  56 NW9       30.00R
CAVALIER APRT  FAIR      66  54  63 N9        29.94S
GWINNER        FAIR      72  54  53 NW8       29.99R
SHEYENNE NWR     N/A     70  55  59 NW7       29.95S
ROLLA          FAIR      66  48  52 NW12      30.01S
 ***** THE ABOVE OBSERVATIONS ARE NON NWS ARE NOT QUALITY
       CONTROLLED AND MAY MIS-REPORT RAIN FOR SNOW...
$$

  *****  WEATHER ACROSS NORTHERN MINNESOTA  *****

CITY           SKY/WX    TMP DP  RH WIND       PRES   REMARKS
FLAG ISLAND    CLOUDY    59  54  82 NW15      29.85S
WARROAD        PTSUNNY   64  54  68 NW12G17   29.88S
ROSEAU         MOSUNNY   63  54  72 NW16G22   29.88S
HALLOCK        SUNNY     66  52  59 NW15G23   29.92S
THF RVR FALLS  SUNNY     64  52  63 NW13      29.92F
BAUDETTE       CLOUDY    61  52  72 NW9       29.86S
WASKISH        MOSUNNY   64  54  68 W10G21    29.88S
CROOKSTON      SUNNY     66  54  63 NW10      29.94S
STEPHEN NDAWN    N/A     66  55  68 N12         N/A
GREENBUSH NDAW   N/A     66  52  59 NW15        N/A
$$
  *****  WEATHER ACROSS CENTRAL AND WEST MINNESOTA  *****

CITY           SKY/WX    TMP DP  RH WIND       PRES   REMARKS
FOSSTON        SUNNY     66  50  55 W13       29.93S
BEMIDJI        SUNNY     65  50  56 NW16G23   29.90F
PARK RAPIDS    SUNNY     68  50  52 NW15      29.92S
ELBOW LAKE     FAIR      65  54  65 NW7       29.96S
WADENA         SUNNY     68  48  49 NW10      29.93S
DETROIT LAKES  SUNNY     66  50  55 NW7       29.95S
MOORHEAD       SUNNY     64  54  68 CALM      29.95S
FERGUS FALLS   SUNNY     66  54  63 NW7       29.94F
MORRIS MN      SUNNY     70  57  64 NW8       29.96R
STAPLES        SUNNY     68  46  45 NW9       29.93S
$$
  *****  WEATHER ELSEWHERE ACROSS MINNESOTA  *****

CITY           SKY/WX    TMP DP  RH WIND       PRES   REMARKS
DULUTH         MOSUNNY   67  51  56 NW21G28   29.82S
INTRNTL FALLS  CLOUDY    62  53  72 NW12G22   29.83R
ELY            CLOUDY    61  50  67 NW9G16    29.80S
CLOQUET        PTSUNNY   64  48  55 NW15G22   29.85S
WHEATON        SUNNY     68  54  60 NW6       29.98S
BRAINERD       SUNNY     68  48  48 N18G24    29.91S
HIBBING        CLOUDY    62  51  67 NW14G24   29.85R
ALEXANDRIA     SUNNY     69  51  52 NW7       29.96S
SAINT CLOUD    SUNNY     69  50  50 NW12      29.92S
MINNEAPOLIS    SUNNY     73  47  39 NW18      29.91R
$$

  *****  WEATHER ACROSS SOUTH DAKOTA  *****

CITY           SKY/WX    TMP DP  RH WIND       PRES   REMARKS
SIOUX FALLS    MOSUNNY   72  56  57 SW7       30.00S
BROOKINGS      SUNNY     72  55  56 NW7       30.02S
WATERTOWN      SUNNY     72  52  49 VRB5      30.00R
HURON          SUNNY     71  62  73 W3        30.00R
SISSETON         N/A     72  52  49 NW9       29.96S
ABERDEEN       SUNNY     70  54  56 CALM      30.00S
MITCHELL       SUNNY     71  61  70 S5        30.01S
PIERRE         SUNNY     71  58  63 CALM      30.01S
MOBRIDGE       SUNNY     70  58  65 VRB3      30.01S
RAPID CITY     MOSUNNY   71  57  61 SE7       30.06R
$$

  *****  SOME WEATHER IN NEARBY STATES *****

CITY           SKY/WX    TMP DP  RH WIND       PRES   REMARKS
GLASGOW MT     SUNNY     70  48  45 SE15      30.02S
GREAT FALLS MT MOSUNNY   70  48  45 CALM      29.95S
CHEYENNE WY    PTSUNNY   72  51  47 SW5       30.15R
SCOTTSBLUFF NE PTSUNNY   69  58  67 E7        30.04R
OMAHA NE       PTSUNNY   74  61  63 E3        30.01R
DES MOINES IA  MOSUNNY   76  52  43 CALM      29.97R
DAVENPORT IA   SUNNY     75  57  53 NE7       29.92R
CHICAGO IL     MOSUNNY   75  57  53 N13       29.85R
EAU CLAIRE WI  SUNNY     71  48  43 NW14      29.86S
LA CROSSE WI   SUNNY     73  54  51 NW6       29.88S
$$

  *****  SOME NATIONAL WEATHER *****

CITY           SKY/WX    TMP DP  RH WIND       PRES   REMARKS
LA GUARDIA NY  MOSUNNY   85  59  41 SW12      29.84S
RALEIGH NC     MOSUNNY   84  72  67 SW8       29.96R
ATLANTA GA     MOSUNNY   82  71  69 VRB3      29.97S
NEW ORLEANS LA PTSUNNY   88  73  61 N7        29.91F HX  95
OKLAHOMA CITY  CLOUDY    76  67  73 S3        29.98S
ALBUQUERQUE NM MOSUNNY   69  59  70 CALM      30.19R
SALT LAKE CITY LGT RAIN  63  60  90 N8        30.08R
LOS ANGELES CA MOSUNNY   70  64  81 CALM      29.90R
BOISE ID       CLOUDY    79  48  33 N5        29.90R
SEATTLE WA     CLOUDY    64  55  72 SW3       29.94R
$$

*** WEATHER ACROSS MANITOBA...SASKATCHEWAN AND ONTARIO ***
                ***ONTARIO***

CITY           SKY/WX    TMP DP  RH WIND       PRES   REMARKS
GERALDTON      LGT RAIN  54  52  94 NW8       29.64S
THUNDER BAY    PTSUNNY   63  52  67 NW12G24   29.70F
SIOUX LOOKOUT  LGT RAIN  57  52  82 NW14      29.76S
TORONTO        PTSUNNY   73  63  68 W15G24    29.72R
BIG TROUT LK   CLOUDY    50  45  81 N9        29.71
PICKLE LAKE    CLOUDY    50  45  81 NW7       29.70R
DRYDEN         CLOUDY    57  50  77 W10G17    29.79S
KENORA         CLOUDY    59  52  77 NW10      29.84
$$
                *** MANITOBA***

CITY           SKY/WX    TMP DP  RH WIND       PRES   REMARKS
BRANDON        MOSUNNY   64  55  72 W7        29.98S
DAUPHIN        SUNNY     64  52  63 W9        29.94F
ISLAND LAKE    PTSUNNY   52  50  93 N10G20    29.82S
PILOT MOUND      N/A     63  54  72 NW6         N/A
THE PAS        SUNNY     64  52  63 N5        29.92S
THOMPSON       CLOUDY    54  48  82 N10       29.89R
WINNIPEG       PTSUNNY   63  50  63 NW16G24   29.93R
LYNN LAKE      CLOUDY    55  48  76 N7        29.95R
CHURCHILL      CLOUDY    48  45  87 N10       29.88S
GILLAM         CLOUDY    48  45  87 N14       29.86R
$$
                ***SASKATCHEWAN***

CITY           SKY/WX    TMP DP  RH WIND       PRES   REMARKS
ESTEVAN        MOSUNNY   68  54  60 CALM      30.03F
KINDERSLEY     PTSUNNY   66  54  63 SE9       29.99R
LLOYDMINSTER   PTSUNNY   70  54  56 S8        29.98S
PRINCE ALBERT  MOSUNNY   66  57  72 W2        30.00
REGINA         PTSUNNY   73  55  53 SW3       30.03S
YORKTON        SUNNY     66  55  68 W7        29.99S
N. BATTLEFORD  SUNNY     68  54  60 VRB2      30.02S
LA RONGE       SUNNY     66  45  45 NE5       29.99R
SASKATOON      MOSUNNY   68  55  64 W3        30.03R
SWIFT CURRENT  SUNNY     70  55  60 S9        30.01F
$$
NOTE: THESE ARE AUTOMATED STATIONS WITH LIMITED QUALITY CONTROL
      "FAIR" INDICATES FEW OR NO CLOUDS BELOW 12,000 FEET WITH NO
      SIGNIFICANT WEATHER AND/OR OBSTRUCTIONS TO VISIBILITY.
      SKY/WX - SKY CONDITION AND SIGNIFICANT WEATHER.
      TMP - AIR TEMPERATURE.    DP   - DEWPOINT TEMPERATURE.
      RH  - RELATIVE HUMIDITY.  PRES - PRESSURE.
      HX  - HEAT INDEX.         WCI  - WIND CHILL INDEX.
$



USA.gov is the U.S. government's official web portal to all federal, state and local government web resources and services.